Temperature
8 8 7 7 7 7 7 7 7 6 6 6 6 6 5 5 5 5 5 5 5 5 5 5 4 4 4 4 4 4 4 4 4 4 4 4 3 3
7 7 7 7 7 6 6 6 6 6 6 6 5 5 5 5 5 5 5 4 4 4 4 4 4 4 4 4 3 3 3 3 3 3 3 3 3 3
7 7 7 6 6 6 6 6 6 5 5 5 5 5 4 4 4 4 4 4 4 4 4 4 3 3 3 3 3 3 3 3 3 3 2 2 2 2
7 6 6 6 6 6 5 5 5 5 5 5 5 4 4 4 4 4 4 4 4 3 3 3 3 3 3 3 3 2 2 2 2 2 2 2 2 2
6 6 6 6 5 5 5 5 5 5 4 4 4 4 4 3 3 3 3 3 3 3 3 3 2 2 2 2 2 2 2 2 1 1 1 1 1 1
5 5 5 5 5 4 4 4 4 4 4 3 3 3 3 3 3 3 3 3 3 3 2 2 2 2 2 2 1 1 1 1 1 1 1 1 1 1
5 5 4 4 4 4 4 4 3 3 3 3 3 2 2 2 2 2 2 2 2 2 2 2 2 1 1 1 1 1 0 0 0 0 0 0 0 0
4 4 4 3 3 3 3 3 3 3 3 2 2 2 2 1 1 1 1 1 1 1 1 1 1 1 0 0 0 0 -0 -0 -0 -0 -0 -0 -0 -0
4 4 3 3 3 2 2 2 2 2 2 2 1 1 1 1 1 1 0 0 0 0 0 1 0 0 -0 -0 -0 -1 -1 -1 -1 -1 -1 -1 -1 -1
3 3 3 3 2 2 2 2 2 1 1 1 1 1 1 0 0 -0 -0 -0 -0 -0 -1 -1 -0 -0 -1 -1 -1 -1 -1 -1 -1 -1 -1 -1 -1 -1
2 2 2 2 2 1 1 1 1 1 1 0 0 0 0 -0 -0 -1 -1 -1 -1 -1 -1 -2 -2 -1 -1 -1 -1 -2 -2 -2 -2 -2 -2 -2 -2 -2
1 1 1 1 1 1 1 1 0 0 0 0 -0 -0 -0 -0 -1 -1 -1 -2 -2 -2 -2 -2 -3 -3 -3 -2 -2 -2 -2 -2 -2 -2 -2 -2 -3 -2
1 1 1 0 1 0 0 0 -0 -0 -0 -1 -1 -1 -1 -1 -1 -2 -2 -2 -2 -3 -3 -3 -3 -3 -4 -3 -2 -2 -3 -3 -3 -3 -3 -3 -3 -3
0 0 0 -0 -0 -0 -0 -1 -1 -1 -1 -1 -2 -2 -2 -2 -2 -2 -2 -3 -3 -3 -3 -4 -4 -4 -4 -4 -4 -3 -3 -3 -3 -3 -3 -3 -3 -3
-1 -1 -1 -1 -1 -1 -1 -1 -2 -2 -2 -2 -2 -2 -3 -3 -3 -3 -3 -3 -3 -3 -4 -4 -4 -4 -4 -4 -4 -4 -4 -3 -4 -4 -4 -4 -4 -4
-1 -2 -2 -2 -2 -2 -2 -2 -2 -2 -3 -3 -3 -3 -3 -3 -3 -3 -4 -4 -4 -4 -4 -4 -4 -4 -4 -4 -4 -4 -4 -4 -4 -4 -4 -4 -4 -4
-2 -2 -2 -2 -2 -3 -3 -3 -3 -3 -3 -3 -4 -4 -4 -4 -4 -4 -4 -5 -5 -4 -4 -4 -4 -4 -4 -4 -4 -4 -5 -5 -5 -5 -5 -4 -4 -5
-3 -3 -3 -3 -3 -3 -3 -3 -4 -4 -4 -4 -4 -4 -5 -5 -5 -5 -5 -5 -5 -5 -5 -5 -5 -4 -4 -5 -5 -5 -5 -5 -5 -5 -5 -5 -5 -4
-3 -3 -4 -4 -4 -4 -4 -4 -4 -4 -5 -5 -5 -5 -5 -5 -5 -5 -6 -6 -6 -6 -5 -5 -5 -5 -6 -5 -5 -5 -6 -6 -6 -5 -5 -5 -5 -5
-4 -4 -4 -4 -5 -5 -5 -5 -5 -5 -5 -6 -6 -6 -6 -6 -6 -6 -6 -6 -6 -6 -6 -6 -6 -6 -6 -6 -6 -6 -6 -6 -6 -6 -6 -6 -6 -5
-5 -5 -5 -5 -5 -5 -5 -5 -6 -6 -6 -6 -6 -6 -6 -7 -7 -7 -7 -7 -7 -6 -6 -6 -6 -6 -6 -6 -6 -6 -6 -6 -7 -7 -7 -6 -6 -6
-5 -5 -6 -6 -6 -6 -6 -6 -6 -6 -6 -7 -7 -7 -7 -7 -7 -7 -7 -7 -7 -7 -7 -6 -6 -6 -7 -7 -7 -7 -6 -6 -6 -7 -7 -7 -7 -7
-6 -6 -6 -6 -6 -6 -6 -7 -7 -7 -7 -7 -7 -7 -7 -7 -7 -7 -7 -7 -7 -7 -7 -7 -7 -7 -7 -7 -7 -7 -7 -7 -6 -6 -6 -7 -7 -7
Wind_Speed
6 5 4 3 2 2 2 3 3 3 5 3 2 2 2 2 4 5 6 8 8 8 8 8 9 9 10 10 11 11 11 12 13 13 14 15 15 14
4 5 4 2 2 1 2 1 2 3 4 3 3 2 2 3 5 5 6 8 8 8 8 8 8 9 10 9 10 10 11 12 12 13 14 14 15 14
5 6 5 3 3 2 1 1 1 1 3 3 2 2 2 3 4 5 6 6 6 8 8 8 8 9 9 9 10 10 11 11 12 12 13 13 14 15
6 6 5 3 3 2 2 2 1 1 2 3 2 2 3 3 3 4 4 5 6 8 8 8 7 8 8 9 9 10 10 11 11 12 12 13 14 15
7 6 6 5 4 2 2 2 2 1 1 2 2 2 2 2 3 3 4 4 5 7 7 7 7 9 9 9 10 10 10 10 11 12 12 13 13 14
5 6 6 6 5 4 3 3 2 1 1 1 1 2 2 2 2 3 4 3 4 5 6 6 8 8 8 9 10 10 11 11 12 12 12 12 13 13
5 5 5 5 6 5 4 3 3 2 1 2 2 2 2 2 2 2 4 5 4 3 3 4 6 6 7 9 9 10 11 11 12 12 12 12 12 12
5 5 4 5 5 5 5 5 4 4 3 3 3 3 4 3 3 3 3 4 4 2 3 5 4 4 6 7 10 11 10 10 11 12 12 13 13 12
6 5 4 4 4 4 3 2 2 3 4 4 4 4 3 4 3 4 3 3 4 4 4 5 3 4 6 8 11 10 9 10 12 12 12 13 12 12
3 5 5 5 4 4 3 2 2 2 2 2 3 3 3 3 3 3 3 3 3 3 2 3 3 4 5 7 9 8 10 11 11 12 13 13 12 13
2 2 4 5 6 5 4 3 1 1 1 1 2 2 2 3 2 1 1 2 3 3 1 2 3 5 4 4 6 8 10 11 12 13 13 13 13 12
2 2 3 4 5 5 4 4 3 2 1 0 1 2 3 3 3 1 1 2 3 3 1 2 2 3 4 3 3 6 8 10 12 13 13 13 13 9
3 2 1 2 3 3 2 2 3 2 2 1 1 1 2 2 2 2 2 2 2 3 2 2 2 2 3 4 4 4 5 6 8 9 11 13 13 10
2 2 2 2 1 1 1 2 2 3 2 2 1 1 1 2 2 2 3 2 2 4 4 3 2 3 3 4 5 4 5 6 6 6 8 11 12 12
2 3 2 3 3 3 3 3 3 3 2 1 1 1 1 2 2 2 3 3 3 4 4 4 3 3 3 4 4 5 5 5 5 5 6 7 6 7
3 4 5 6 5 4 3 3 2 1 1 1 0 0 1 2 2 2 2 3 3 3 4 5 5 4 3 4 5 5 4 4 5 6 6 6 7 7
4 3 3 3 2 2 2 2 2 1 1 0 0 0 1 1 2 2 2 2 2 3 4 4 5 4 5 4 4 4 4 4 5 5 5 6 5 6
5 3 3 2 1 1 1 1 1 1 1 0 0 1 1 1 2 2 2 2 3 4 4 4 4 4 3 2 4 4 4 4 4 5 4 5 6 6
4 3 2 1 1 1 0 0 1 1 1 1 1 1 1 2 2 2 2 3 3 4 4 3 2 2 4 5 4 2 3 5 5 5 4 4 6 7
2 2 1 1 0 0 0 1 1 1 1 1 1 1 1 2 2 2 3 3 4 4 4 3 2 2 3 4 4 5 6 5 4 5 5 5 5 8
1 1 0 0 0 1 1 1 1 1 1 1 1 2 2 2 2 3 3 4 4 4 4 4 5 6 3 2 3 4 5 8 7 5 5 5 5 4
1 0 0 0 1 1 1 1 1 1 1 2 2 2 2 2 3 3 3 3 4 4 5 4 4 3 2 2 4 5 6 6 8 9 7 5 3 3
0 0 0 0 1 1 1 1 2 2 2 2 2 2 3 3 3 3 3 3 4 4 4 4 3 2 2 3 4 5 6 6 5 5 5 8 9 10
Wind_Direction
192 190 194 202 190 191 183 184 190 241 260 249 239 251 248 280 292 295 298 293 296 300 301 302 304 306 307 310 312 313 313 314 315 314 313 311 304 302
185 181 191 190 176 175 178 195 194 206 245 252 250 270 276 286 295 301 298 297 298 301 299 300 299 303 304 308 312 315 316 316 315 313 313 314 313 307
184 181 187 183 179 186 176 185 203 189 237 277 281 292 283 289 307 306 302 300 303 303 298 296 299 303 304 309 312 314 314 314 313 314 316 318 317 312
188 181 184 179 178 189 188 193 210 210 213 254 277 284 281 283 295 302 313 311 311 309 310 308 308 311 312 312 310 313 314 316 315 315 315 315 316 314
185 185 185 177 185 194 190 197 218 229 201 216 261 279 292 302 313 310 312 312 313 313 315 317 316 316 316 314 312 315 313 313 311 311 312 312 312 313
184 189 187 185 189 190 194 198 198 188 177 205 259 283 298 304 308 310 313 310 309 320 317 317 319 319 318 317 317 317 315 314 311 312 312 312 312 310
181 188 188 187 191 195 199 195 184 188 202 227 263 289 294 303 293 293 299 309 303 307 311 316 320 320 322 316 314 315 315 316 315 315 315 313 311 307
182 185 184 186 194 199 202 199 192 199 211 226 251 261 270 275 284 290 299 312 303 314 315 308 314 304 311 312 312 316 319 321 321 319 317 315 310 306
183 182 183 188 185 189 190 182 216 236 232 227 237 250 256 257 265 280 285 286 284 302 315 300 307 298 305 312 316 319 324 326 324 321 319 317 314 311
174 183 182 184 190 184 180 189 218 249 257 250 230 244 256 261 257 265 269 281 288 299 308 289 306 299 305 309 316 327 331 330 330 331 331 326 321 318
155 167 181 188 194 184 181 186 203 248 279 255 273 290 310 312 312 318 316 319 307 304 313 294 307 312 303 294 312 327 331 330 330 331 331 330 325 320
148 156 181 195 198 191 186 182 202 227 204 62 25 4 359 352 348 328 261 285 301 292 300 316 309 329 314 296 300 317 326 327 329 329 330 332 331 331
153 153 177 182 191 202 199 188 212 196 146 124 85 13 4 6 0 342 312 269 274 276 292 311 296 300 286 300 302 300 310 316 322 324 326 331 334 336
153 160 167 157 140 123 92 117 103 90 101 97 78 17 353 336 325 328 322 307 277 268 274 271 269 277 287 297 298 308 309 311 317 317 321 325 327 328
116 127 118 99 85 84 82 86 83 94 110 104 82 345 323 309 319 334 340 340 320 303 292 278 260 260 263 274 289 301 310 309 316 318 318 317 313 316
95 99 88 79 69 66 64 56 53 82 101 125 147 314 319 321 324 323 321 324 320 314 310 298 282 258 263 269 273 286 293 298 313 316 314 309 311 311
109 95 87 81 69 62 65 69 57 54 53 54 112 345 331 333 326 326 320 321 312 306 312 319 318 288 256 256 274 279 289 296 301 311 316 314 307 306
105 109 107 105 103 79 64 43 32 34 16 348 321 306 314 319 321 325 325 317 308 306 307 314 329 336 333 289 243 271 290 296 304 307 308 310 311 312
92 108 114 119 112 84 63 0 329 324 318 293 292 298 302 306 311 315 318 316 310 306 307 310 324 335 326 314 304 282 295 306 312 312 306 300 301 307
90 111 114 123 146 185 254 301 301 303 299 295 298 295 291 295 301 303 305 302 303 304 305 305 302 294 281 285 290 295 301 299 299 305 309 305 296 301
79 83 81 70 250 245 252 257 259 268 274 279 279 280 287 293 293 293 296 303 305 300 299 297 289 302 292 293 298 298 297 305 303 299 306 310 312 314
80 79 18 307 284 264 255 251 261 271 269 271 273 275 279 280 280 283 287 293 293 292 292 297 307 315 310 293 294 297 304 313 318 319 311 297 295 301
55 287 283 293 285 274 256 250 260 270 268 269 271 273 274 278 277 279 284 287 292 295 300 306 312 313 305 291 292 296 300 310 319 326 319 318 312 302
Height
1503 1504 1505 1506 1507 1509 1509 1509 1510 1507 1506 1506 1507 1506 1506 1505 1504 1503 1502 1500 1499 1498 1496 1495 1493 1492 1490 1488 1486 1484 1482 1480 1478 1477 1475 1474 1472 1471
1498 1499 1501 1502 1503 1504 1505 1505 1506 1505 1503 1503 1502 1502 1502 1501 1500 1498 1497 1496 1495 1493 1492 1490 1489 1487 1485 1483 1481 1479 1477 1475 1473 1472 1470 1468 1467 1465
1493 1495 1496 1497 1498 1499 1500 1501 1501 1501 1500 1499 1499 1498 1498 1497 1495 1494 1493 1492 1490 1489 1488 1486 1484 1483 1481 1478 1476 1474 1472 1470 1468 1467 1465 1463 1461 1460
1488 1489 1491 1493 1494 1495 1496 1496 1497 1497 1496 1495 1494 1494 1493 1493 1491 1490 1488 1487 1486 1484 1483 1481 1480 1478 1476 1474 1472 1469 1467 1465 1463 1461 1459 1457 1456 1454
1484 1485 1486 1488 1489 1490 1491 1492 1492 1492 1492 1491 1490 1490 1489 1488 1487 1485 1484 1483 1482 1480 1478 1477 1475 1473 1471 1469 1467 1465 1462 1460 1458 1456 1454 1452 1450 1449
1479 1481 1482 1483 1484 1486 1487 1488 1488 1488 1487 1487 1486 1485 1485 1484 1483 1481 1479 1478 1477 1475 1474 1472 1471 1468 1466 1464 1462 1460 1457 1455 1453 1451 1449 1447 1445 1443
1474 1476 1478 1479 1480 1482 1483 1483 1484 1483 1483 1483 1482 1481 1481 1480 1479 1477 1475 1473 1472 1471 1469 1467 1466 1463 1461 1459 1457 1455 1452 1450 1448 1446 1443 1441 1439 1438
1470 1472 1473 1475 1476 1478 1479 1479 1480 1479 1479 1478 1478 1477 1476 1476 1475 1474 1471 1469 1467 1467 1465 1462 1461 1458 1456 1454 1452 1450 1448 1445 1443 1440 1438 1436 1434 1432
1465 1467 1469 1470 1472 1473 1474 1475 1475 1475 1476 1475 1474 1473 1472 1472 1471 1469 1467 1466 1464 1462 1460 1457 1456 1454 1452 1450 1448 1446 1443 1441 1438 1435 1433 1431 1429 1427
1461 1463 1464 1466 1467 1468 1470 1470 1470 1471 1471 1470 1470 1469 1469 1468 1467 1466 1463 1462 1460 1459 1456 1453 1451 1449 1447 1445 1444 1441 1439 1436 1434 1431 1429 1426 1424 1422
1458 1459 1461 1462 1463 1464 1465 1465 1465 1466 1466 1466 1466 1465 1465 1464 1463 1462 1460 1458 1455 1454 1453 1450 1447 1445 1442 1441 1439 1437 1435 1433 1430 1427 1424 1421 1419 1417
1454 1456 1457 1458 1459 1460 1461 1461 1461 1461 1461 1461 1461 1461 1460 1460 1459 1458 1456 1454 1452 1450 1449 1447 1444 1442 1439 1437 1436 1434 1432 1429 1427 1424 1421 1418 1415 1412
1451 1452 1453 1454 1455 1456 1457 1457 1457 1457 1457 1457 1457 1456 1456 1456 1455 1454 1452 1451 1449 1447 1446 1444 1442 1440 1438 1434 1432 1431 1428 1425 1423 1420 1418 1415 1412 1409
1448 1449 1450 1451 1452 1452 1452 1452 1453 1453 1453 1453 1453 1452 1452 1452 1451 1450 1449 1447 1446 1445 1443 1441 1439 1437 1434 1431 1429 1427 1425 1423 1420 1417 1415 1412 1409 1407
1446 1447 1448 1448 1449 1449 1449 1449 1449 1450 1450 1450 1449 1449 1449 1448 1447 1446 1445 1444 1442 1441 1439 1437 1436 1434 1432 1429 1426 1424 1421 1419 1417 1414 1411 1408 1405 1403
1444 1445 1446 1446 1447 1447 1447 1447 1447 1447 1447 1447 1447 1446 1446 1445 1444 1443 1441 1440 1439 1437 1436 1434 1432 1430 1428 1426 1424 1421 1419 1416 1414 1411 1408 1405 1403 1400
1442 1443 1444 1444 1445 1444 1445 1445 1445 1445 1445 1445 1444 1443 1443 1442 1441 1440 1439 1437 1436 1434 1432 1431 1429 1427 1425 1424 1421 1419 1416 1414 1411 1408 1405 1402 1400 1397
1441 1441 1442 1442 1443 1442 1442 1442 1443 1442 1442 1442 1441 1441 1440 1439 1438 1437 1436 1435 1433 1431 1429 1428 1426 1424 1422 1420 1419 1416 1414 1411 1408 1406 1403 1399 1396 1395
1440 1440 1440 1440 1441 1441 1441 1441 1440 1440 1440 1439 1439 1438 1438 1437 1436 1434 1433 1432 1430 1429 1427 1425 1423 1421 1419 1417 1415 1414 1411 1408 1405 1403 1400 1397 1394 1392
1438 1438 1438 1439 1439 1439 1439 1439 1438 1438 1437 1437 1436 1436 1435 1434 1433 1432 1430 1429 1427 1426 1424 1423 1421 1419 1417 1415 1413 1411 1409 1406 1403 1400 1397 1395 1392 1390
1436 1436 1436 1436 1437 1437 1437 1436 1436 1435 1435 1434 1434 1433 1432 1431 1430 1429 1428 1426 1425 1423 1421 1420 1418 1417 1415 1413 1411 1408 1406 1404 1401 1398 1395 1392 1389 1386
1434 1434 1434 1434 1434 1434 1433 1433 1433 1432 1432 1431 1431 1430 1429 1428 1427 1426 1425 1424 1422 1421 1419 1417 1416 1414 1412 1410 1407 1405 1403 1401 1399 1397 1394 1392 1388 1384
1433 1432 1432 1432 1432 1431 1431 1430 1430 1429 1429 1428 1427 1427 1426 1425 1424 1423 1422 1421 1419 1418 1416 1415 1413 1411 1410 1408 1405 1403 1401 1399 1396 1394 1392 1390 1388 1385